Weather Roundup
Issued by NWS

Home | Current Version | Previous Version | Text Only | Print | Product List | Glossary On
Versions: 1 2 3 4 5 6 7 8 9 10 11 12 13 14 15 16 17 18 19 20 21 22 23 24 25 26 27 28 29 30 31 32 33 34 35 36 37 38 39 40 41 42 43 44 45 46 47 48 49 50
000
NZUS93 KARX 051410
HRRWXR

CURRENT HOURLY OBSERVATIONS ACROSS
MUCH OF THE UPPER MISSISSIPPI VALLEY
NATIONAL WEATHER SERVICE LA CROSSE WI
800 AM CST THU MAR 05 2015


...SOUTHEAST MINNESOTA...


CITY           SKY/WX    TMP DP  RH WIND       PRES   REMARKS
ROCHESTER      MOSUNNY   -9 -14  78 W8        30.46R WCI -25
ROCHESTER/MAYO FAIR      -4 -10  77 W6        30.48R WCI -17
WINONA         SUNNY     -4 -11  71 CALM      30.54R
AUSTIN         MOSUNNY   -6  -9  84 NW7       30.47R WCI -20
ALBERT LEA     SUNNY     -6  -9  84 CALM      30.47R
DODGE CENTER   SUNNY     -9 -15  77 W6        30.45R WCI -23
PRESTON        MOSUNNY   -9 -14  78 W8        30.46R WCI -25
OWATONNA       SUNNY     -8 -11  84 SW5       30.48R WCI -19
FARIBAULT      SUNNY     -8 -13  77 CALM      30.49R
$$

...ELSEWHERE IN MINNESOTA...


CITY           SKY/WX    TMP DP  RH WIND       PRES   REMARKS
MINNEAPOLIS    MOSUNNY   -4 -10  75 SW5       30.51R WCI -15
INTNL FALLS    PTSUNNY  -18 -22  82 SW7       30.30S WCI -35
DULUTH         FAIR      -9 -16  71 NW10      30.33R WCI -27
RED WING       SUNNY     -6 -11  77 W3        30.50R
REDWOOD FALLS  MOSUNNY   -8 -14  74 SW6       30.49R WCI -21
MANKATO        MOSUNNY   -6 -17  59 W5        30.50R WCI -17
FAIRMONT       SUNNY     -2  -9  71 W5        30.47R WCI -12
$$

...SOUTHWEST WISCONSIN...


CITY           SKY/WX    TMP DP  RH WIND       PRES   REMARKS
LA CROSSE      SUNNY     -1 -10  65 CALM      30.52R
PRAIRIE DU CHI SUNNY     -3 -12  64 W3        30.54R
BOSCOBEL       SUNNY     -4  -9  79 SW5       30.53R WCI -15
LONE ROCK      SUNNY     -4 -10  75 W3        30.51R
PLATTEVILLE    SUNNY     -5 -10  78 W5        30.47R WCI -16
FORT MC COY    SUNNY     -7 -13  74 CALM      30.49R
CAMP DOUGLAS   SUNNY      0  -9  65 W7        30.47R WCI -13
VIROQUA        FAIR      -4 -11  72 W3        30.43R
WIS DELLS      SUNNY     -2 -11  63 CALM      30.46R
$$

...ELSEWHERE IN WISCONSIN...


CITY           SKY/WX    TMP DP  RH WIND       PRES   REMARKS
MILWAUKEE      MOSUNNY    6 -10  47 NW6       30.45R WCI  -4
MADISON        SUNNY      2 -10  57 NW5       30.47R WCI  -8
GREEN BAY      SUNNY     -3 -11  68 SW3       30.44R
EAU CLAIRE     SUNNY     -9 -15  75 SW5       30.47R WCI -20
BLACK RVR FLS  FAIR     -10 -17  71 CALM      30.48R
MEDFORD        MOSUNNY  -11 -17  75 CALM      30.37R
WAUSAU         MOSUNNY   -7 -16  65 NW6       30.38R WCI -20
WIS RAPIDS     MOSUNNY   -7 -14  71 CALM      30.45R
MARSHFIELD     MOSUNNY   -7 -15  68 NW6       30.40R WCI -20
RICE LAKE      PTSUNNY  -19 -25  73 CALM      30.46R
$$

...NORTHEAST IOWA...


CITY           SKY/WX    TMP DP  RH WIND       PRES   REMARKS
DECORAH        MOSUNNY   -6 -15  65 W5        30.48R WCI -17
MASON CITY     MOSUNNY   -9 -14  78 W6        30.51R WCI -22
CHARLES CITY   MOSUNNY   -9 -17  70 W5        30.51R WCI -21
OELWEIN        MOSUNNY   -9 -17  70 NW8       30.51R WCI -26
$$

...ELSEWHERE IN IOWA...


CITY           SKY/WX    TMP DP  RH WIND       PRES   REMARKS
DES MOINES     SUNNY      4  -5  66 NW6       30.56R WCI  -7
IOWA CITY      SUNNY      0  -8  69 NW14      30.56R WCI -19
FORT DODGE     SUNNY     -2  -9  71 CALM      30.53R
$$

...NORTHERN ILLINOIS...


CITY           SKY/WX    TMP DP  RH WIND       PRES   REMARKS
CHICAGO-OHARE  MOSUNNY    6  -6  57 NW9       30.43R WCI  -8
CHICAGO-MIDWAY MOSUNNY   11  -5  48 NW9       30.44R WCI  -2
MOLINE         SUNNY      2  -7  66 NW9       30.53R WCI -13
ROCKFORD       MOSUNNY    2  -7  66 N6        30.49R WCI  -9
PEORIA         SUNNY      7  -3  64 NW7       30.51R WCI  -5
$$

NOTE: "FAIR" INDICATES FEW OR NO CLOUDS BELOW 12,000 FEET WITH NO
SIGNIFICANT WEATHER AND/OR OBSTRUCTIONS TO VISIBILITY. WIND
SPEEDS ARE IN MILES-PER-HOUR.



USA.gov is the U.S. government's official web portal to all federal, state and local government web resources and services.